Location: Mococo
(38.0255°N, 122.1161°W)
Time: 01:59:00
(UTC+00:00)

FALCON 9 R/B - Pass Details

Date: 13 February 2026
Orbit: 301 x 9254 km, 34.5° (Epoch: 13 March)

Event Time Altitude Azimuth Distance (km) Brightness Sun altitude
Exits shadow 14:01:56 16° 238° (WSW) 1,024 2.3 -12.1°
Maximum altitude 14:03:35 34° 177° (S) 528 1.3 -11.8°
Drops below altitude 10° 14:05:40 10° 106° (ESE) 1,174 4.5 -11.4°
Sets 14:07:41 0° 96° (E) 2,152 6.6 -11.0°
